Location: Newark
(52.2712°N, 35.2148°E)
Time: 03:34:47
(UTC+00:00)

N. Korean satellite - Visible Passes

Search period start: 30 September 2020 00:00
Search period end: 10 October 2020 00:00
Orbit: 455 x 503 km, 97.2° (Epoch: 29 September)

Date Brightness Start Highest point End Pass type
(mag) Time Alt. Az. Time Alt. Az. Time Alt. Az.
01 Oct 9.0 02:41:44 10° NNE 02:44:54 28° E 02:48:01 10° SSE visible
02 Oct 9.8 02:16:24 10° NE 02:18:38 16° E 02:20:51 10° SE visible
03 Oct 10.5 15:38:43 10° WSW 15:40:18 12° W 15:41:55 10° WNW visible
04 Oct 8.2 02:56:45 10° NNE 03:00:11 40° E 03:03:32 10° S visible
05 Oct 9.4 02:31:07 10° NE 02:33:57 22° E 02:36:44 10° SE visible
06 Oct 10.1 02:06:11 10° ENE 02:07:37 12° E 02:09:02 10° ESE visible
07 Oct 7.2 03:11:48 10° NNE 03:15:22 60° E 03:18:50 10° S visible
08 Oct 8.7 02:45:58 10° NNE 02:49:10 30° E 02:52:19 10° SSE visible
09 Oct 9.8 02:20:31 10° NE 02:22:53 17° E 02:25:14 10° SE visible
